Location: Nairn
(57.5833°N, 3.8667°W)
Time: 14:46:20
(UTC+00:00)

Cosmos 1271 Rocket - Visible Passes

Search period start: 09 December 2021 00:00
Search period end: 19 December 2021 00:00
Orbit: 498 x 542 km, 81.2° (Epoch: 08 December)

Date Brightness Start Highest point End Pass type
(mag) Time Alt. Az. Time Alt. Az. Time Alt. Az.
09 Dec 4.9 17:14:32 10° WSW 17:17:51 24° WNW 17:21:12 10° N visible
10 Dec 4.7 17:00:43 10° WSW 17:04:09 27° WNW 17:07:36 10° N visible
11 Dec 4.6 16:46:56 10° SW 16:50:27 29° WNW 16:54:00 10° N visible
12 Dec 4.4 16:33:09 10° SW 16:36:45 31° WNW 16:40:23 10° N visible
13 Dec 4.3 16:19:23 10° SW 16:23:03 34° WNW 16:26:45 10° N visible
17 Dec 5.6 17:04:14 10° WNW 17:05:15 11° NW 17:06:15 10° NNW visible
18 Dec 5.5 16:50:02 10° WNW 16:51:29 12° NW 16:52:56 10° NNW visible
